Weather History for Burlington, NC

Change the Weather History Date:

Thursday, May 9, 2013

  Actual Average Record
Temperature  
Mean Temperature 65 °F -  
Max Temperature 81 °F 76 °F 92 °F (1963)
Min Temperature 50 °F 49 °F 34 °F (1989)
Growing Degree Days 15 (Base 50)    
Moisture  
Dew Point 54 °F    
Average Humidity 80    
Maximum Humidity 100    
Minimum Humidity 39    
Precipitation  
Precipitation 0.01 in - - ()
Sea Level Pressure  
Sea Level Pressure 30.02 in    
Wind  
Wind Speed 2 mph (WSW)    
Max Wind Speed 10 mph    
Max Gust Speed 17 mph    
Visibility 5 miles    
Events Fog    
Averages and records for this station are not official NWS values.
T = Trace of Precipitation, MM = Missing Value Source: NWS Daily Summary

Daily Weather History Graph

Daily Weather History Graph

Search for Another Location

Airport:

Trip Planner

Search our weather history database for the weather conditions in past years. The results will help you decide how hot, cold, wet, or windy it might be!

Date:

Astronomy

May. 09, 2013 Rise Set
Actual Time 6:16 AM EDT 8:12 PM EDT
Civil Twilight 5:48 AM EDT 8:40 PM EDT
Nautical Twilight 5:14 AM EDT 9:14 PM EDT
Astronomical Twilight 4:38 AM EDT 9:51 PM EDT
Moon 5:59 AM EDT (5/9) 8:05 PM EDT (5/9)
Length of Visible Light 14h 51m
Length of Day
13h 55m
Waning Crescent, 0% of the Moon is Illuminated
May 9
Waning Crescent
May 9
New
May 18
First Quarter
May 25
Full
May 31
Last Quarter

Hourly Weather History & Observations

Time (EDT) Temp. Heat Index Dew Point Humidity Pressure Visibility Wind Dir Wind Speed Gust Speed Precip Events Conditions
12:01 AM 55.4 °F - 55.4 °F 100% 30.00 in 0.2 mi Calm Calm - N/A Fog Fog
12:54 AM 55.0 °F - 54.0 °F 96% 30.00 in 0.5 mi Calm Calm - N/A Fog Fog
1:01 AM 55.4 °F - 53.6 °F 94% 30.00 in 0.2 mi Calm Calm - N/A Fog Fog
1:54 AM 54.0 °F - 53.1 °F 97% 29.99 in 0.2 mi Calm Calm - N/A Fog Fog
2:54 AM 54.0 °F - 54.0 °F 100% 29.98 in 0.2 mi WSW 3.5 mph - N/A Fog Fog
3:54 AM 53.1 °F - 52.0 °F 96% 29.99 in 0.2 mi SSE 4.6 mph - N/A Fog Fog
4:54 AM 52.0 °F - 51.1 °F 97% 29.99 in 0.2 mi Calm Calm - N/A Fog Fog
5:26 AM 51.8 °F - 50.0 °F 94% 30.00 in 0.2 mi Calm Calm - 0.01 in Fog Fog
5:34 AM 50.0 °F - 50.0 °F 100% 30.00 in 0.5 mi Calm Calm - 0.01 in Fog Fog
5:43 AM 50.0 °F - 50.0 °F 100% 30.00 in 0.2 mi Calm Calm - 0.01 in Fog Fog
5:54 AM 50.0 °F - 48.9 °F 96% 29.99 in 0.2 mi Calm Calm - 0.01 in Fog Fog
6:13 AM 50.0 °F - 48.2 °F 94% 30.01 in 0.5 mi Calm Calm - N/A Fog Fog
6:27 AM 50.0 °F - 48.2 °F 94% 30.02 in 0.2 mi Calm Calm - N/A Fog Fog
6:54 AM 50.0 °F - 48.9 °F 96% 30.02 in 0.5 mi Calm Calm - N/A Fog Fog
7:01 AM 50.0 °F - 50.0 °F 100% 30.03 in 1.2 mi Calm Calm - N/A   Partly Cloudy
7:08 AM 51.8 °F - 51.8 °F 100% 30.04 in 3.0 mi Calm Calm - N/A   Clear
7:54 AM 55.9 °F - 55.0 °F 97% 30.05 in 10.0 mi Calm Calm - N/A   Clear
8:54 AM 63.0 °F - 57.9 °F 84% 30.05 in 10.0 mi WSW 3.5 mph - N/A   Clear
9:54 AM 68.0 °F - 59.0 °F 73% 30.05 in 10.0 mi West 6.9 mph - N/A   Clear
10:54 AM 71.1 °F - 59.0 °F 66% 30.06 in 10.0 mi West 8.1 mph - N/A   Clear
11:54 AM 73.0 °F - 57.0 °F 57% 30.05 in 10.0 mi Variable 3.5 mph - N/A   Clear
1:54 PM 75.9 °F - 55.9 °F 50% 30.04 in 10.0 mi NW 10.4 mph 17.3 mph N/A   Clear
2:54 PM 79.0 °F - 55.0 °F 44% 30.03 in 10.0 mi NW 8.1 mph - N/A   Clear
3:54 PM 79.0 °F - 55.0 °F 44% 30.02 in 10.0 mi West 5.8 mph - N/A   Partly Cloudy
4:54 PM 80.1 °F 79.9 °F 53.1 °F 39% 30.01 in 10.0 mi Variable 5.8 mph - N/A   Clear
5:54 PM 79.0 °F - 52.0 °F 39% 30.00 in 10.0 mi WSW 3.5 mph - N/A   Clear
6:54 PM 78.1 °F - 54.0 °F 43% 30.00 in 10.0 mi SW 4.6 mph - N/A   Mostly Cloudy
7:54 PM 75.0 °F - 55.9 °F 51% 30.01 in 10.0 mi South 3.5 mph - N/A   Clear
8:54 PM 66.9 °F - 59.0 °F 76% 30.03 in 10.0 mi Calm Calm - N/A   Clear
9:54 PM 64.0 °F - 57.9 °F 80% 30.05 in 10.0 mi Calm Calm - N/A   Clear
10:54 PM 61.0 °F - 57.9 °F 90% 30.06 in 10.0 mi Calm Calm - N/A   Clear
11:54 PM 63.0 °F - 55.9 °F 78% 30.05 in 10.0 mi Calm Calm - N/A   Clear